QPF
0.06 0.07 0.07 0.06 0.06 0.07 0.08 0.08 0.08 0.09 0.09 0.10 0.10 0.09 0.08 0.08 0.08 0.07 0.06 0.06 0.07 0.07 0.07 0.07 0.08 0.08 0.09 0.10 0.10 0.10 0.09 0.09 0.09 0.05 0.03 0.03 0.02 0.02 0.02 0.03 0.03 0.02 0.02
0.04 0.05 0.06 0.05 0.06 0.07 0.07 0.08 0.08 0.09 0.10 0.10 0.09 0.09 0.08 0.07 0.07 0.08 0.08 0.07 0.06 0.06 0.06 0.07 0.07 0.08 0.09 0.11 0.12 0.11 0.10 0.09 0.09 0.07 0.05 0.04 0.04 0.03 0.03 0.03 0.03 0.03 0.02
0.05 0.05 0.04 0.04 0.04 0.04 0.05 0.07 0.07 0.06 0.07 0.07 0.07 0.07 0.06 0.06 0.05 0.06 0.07 0.08 0.07 0.07 0.06 0.07 0.08 0.08 0.09 0.10 0.11 0.12 0.12 0.11 0.10 0.09 0.07 0.06 0.05 0.04 0.04 0.04 0.03 0.03 0.03
0.05 0.04 0.05 0.04 0.04 0.04 0.06 0.07 0.07 0.07 0.07 0.07 0.07 0.07 0.07 0.06 0.06 0.05 0.06 0.07 0.07 0.08 0.08 0.08 0.08 0.09 0.09 0.09 0.10 0.11 0.11 0.12 0.12 0.12 0.11 0.09 0.07 0.06 0.05 0.05 0.05 0.04 0.04
0.06 0.05 0.06 0.07 0.07 0.07 0.08 0.08 0.08 0.08 0.10 0.11 0.13 0.13 0.11 0.10 0.08 0.07 0.06 0.06 0.07 0.08 0.08 0.08 0.09 0.10 0.10 0.11 0.12 0.12 0.12 0.14 0.15 0.14 0.13 0.11 0.10 0.09 0.07 0.06 0.06 0.05 0.05
0.06 0.06 0.06 0.07 0.06 0.07 0.08 0.09 0.09 0.09 0.10 0.12 0.13 0.15 0.16 0.16 0.15 0.12 0.09 0.08 0.08 0.09 0.09 0.09 0.10 0.11 0.11 0.11 0.12 0.13 0.14 0.15 0.16 0.15 0.14 0.12 0.09 0.07 0.06 0.06 0.06 0.07 0.06
0.06 0.06 0.06 0.06 0.07 0.07 0.06 0.06 0.06 0.07 0.07 0.09 0.10 0.11 0.12 0.15 0.17 0.14 0.12 0.11 0.11 0.11 0.11 0.11 0.11 0.11 0.11 0.11 0.12 0.13 0.14 0.15 0.15 0.15 0.15 0.12 0.10 0.08 0.08 0.08 0.08 0.07 0.06
0.05 0.05 0.06 0.05 0.05 0.05 0.06 0.06 0.06 0.06 0.06 0.07 0.07 0.08 0.09 0.11 0.14 0.15 0.14 0.13 0.12 0.12 0.12 0.12 0.12 0.12 0.12 0.13 0.14 0.15 0.15 0.15 0.14 0.14 0.13 0.12 0.10 0.09 0.09 0.08 0.09 0.10 0.09
0.04 0.04 0.05 0.05 0.05 0.04 0.04 0.05 0.06 0.06 0.07 0.07 0.07 0.07 0.08 0.08 0.10 0.12 0.13 0.12 0.12 0.11 0.11 0.11 0.12 0.12 0.14 0.15 0.15 0.16 0.16 0.15 0.14 0.14 0.14 0.14 0.14 0.13 0.12 0.11 0.12 0.13 0.11
0.03 0.03 0.03 0.03 0.03 0.04 0.04 0.05 0.05 0.05 0.05 0.06 0.06 0.07 0.08 0.08 0.08 0.09 0.10 0.10 0.10 0.10 0.09 0.09 0.11 0.11 0.13 0.14 0.14 0.15 0.16 0.15 0.14 0.15 0.16 0.15 0.14 0.14 0.14 0.12 0.11 0.11 0.10
0.02 0.01 0.01 0.02 0.02 0.03 0.03 0.03 0.04 0.04 0.04 0.05 0.05 0.05 0.06 0.06 0.06 0.06 0.07 0.08 0.08 0.08 0.08 0.08 0.08 0.09 0.09 0.10 0.12 0.12 0.12 0.13 0.14 0.15 0.16 0.17 0.17 0.17 0.16 0.15 0.12 0.11 0.10
0.01 0.01 0.01 0.02 0.02 0.02 0.02 0.03 0.03 0.03 0.03 0.04 0.04 0.04 0.04 0.04 0.04 0.04 0.05 0.06 0.06 0.06 0.06 0.06 0.06 0.07 0.07 0.07 0.09 0.11 0.13 0.13 0.14 0.17 0.18 0.18 0.17 0.16 0.15 0.14 0.13 0.12 0.11
0.02 0.02 0.02 0.02 0.02 0.02 0.02 0.02 0.02 0.02 0.02 0.03 0.03 0.03 0.03 0.03 0.03 0.02 0.02 0.03 0.04 0.04 0.04 0.03 0.04 0.04 0.05 0.06 0.07 0.09 0.11 0.13 0.13 0.15 0.16 0.16 0.16 0.15 0.15 0.15 0.15 0.14 0.14
0.02 0.02 0.02 0.01 0.01 0.01 0.01 0.02 0.02 0.02 0.02 0.02 0.03 0.03 0.02 0.02 0.02 0.02 0.01 0.01 0.02 0.03 0.03 0.03 0.03 0.03 0.04 0.05 0.07 0.08 0.09 0.11 0.15 0.15 0.14 0.14 0.16 0.16 0.16 0.16 0.16 0.15 0.14
0.01 0.01 0.01 0.01 0.01 0.01 0.01 0.01 0.01 0.01 0.02 0.03 0.03 0.03 0.03 0.03 0.02 0.02 0.02 0.01 0.02 0.02 0.02 0.02 0.03 0.03 0.04 0.04 0.05 0.06 0.08 0.10 0.13 0.15 0.16 0.16 0.16 0.16 0.17 0.16 0.16 0.15 0.14
0.01 0.01 0.01 0.01 0.01 0.01 0.01 0.01 0.01 0.01 0.02 0.02 0.03 0.02 0.02 0.02 0.02 0.02 0.02 0.02 0.02 0.02 0.03 0.03 0.03 0.03 0.04 0.04 0.05 0.06 0.07 0.09 0.11 0.12 0.15 0.17 0.16 0.15 0.14 0.14 0.15 0.16 0.15
0.00 0.00 0.01 0.01 0.01 0.01 0.01 0.01 0.01 0.01 0.02 0.02 0.03 0.03 0.02 0.02 0.02 0.02 0.02 0.02 0.02 0.03 0.03 0.03 0.04 0.04 0.04 0.05 0.05 0.06 0.07 0.07 0.08 0.11 0.13 0.15 0.16 0.16 0.15 0.15 0.15 0.16 0.15
0.00 0.00 0.01 0.01 0.01 0.01 0.01 0.01 0.01 0.01 0.02 0.02 0.03 0.03 0.03 0.02 0.02 0.02 0.02 0.02 0.03 0.03 0.03 0.03 0.04 0.04 0.05 0.06 0.06 0.07 0.08 0.09 0.09 0.10 0.12 0.13 0.15 0.16 0.16 0.16 0.15 0.15 0.15
0.00 0.01 0.01 0.01 0.01 0.01 0.00 0.00 0.01 0.01 0.01 0.01 0.02 0.03 0.03 0.03 0.03 0.03 0.04 0.04 0.04 0.04 0.03 0.03 0.03 0.04 0.05 0.06 0.07 0.08 0.08 0.10 0.11 0.11 0.12 0.13 0.14 0.15 0.16 0.16 0.16 0.17 0.16
0.00 0.01 0.01 0.01 0.01 0.00 0.00 0.00 0.00 0.00 0.01 0.01 0.02 0.02 0.03 0.04 0.04 0.05 0.05 0.05 0.05 0.04 0.04 0.04 0.04 0.04 0.05 0.06 0.07 0.07 0.08 0.09 0.10 0.12 0.12 0.13 0.14 0.15 0.16 0.16 0.17 0.17 0.16
0.01 0.00 0.00 0.00 0.00 0.00 0.00 0.01 0.01 0.01 0.01 0.01 0.01 0.01 0.02 0.03 0.04 0.04 0.05 0.05 0.06 0.06 0.06 0.06 0.06 0.06 0.06 0.06 0.06 0.07 0.08 0.08 0.09 0.10 0.10 0.11 0.13 0.14 0.15 0.16 0.16 0.16 0.16
0.01 0.00 0.00 0.00 0.00 0.00 0.01 0.01 0.01 0.01 0.01 0.01 0.01 0.01 0.01 0.01 0.02 0.03 0.03 0.04 0.04 0.05 0.05 0.06 0.07 0.07 0.08 0.08 0.08 0.08 0.08 0.08 0.09 0.09 0.10 0.10 0.11 0.12 0.14 0.15 0.15 0.16 0.16
0.01 0.01 0.00 0.00 0.00 0.00 0.00 0.00 0.01 0.01 0.01 0.01 0.01 0.01 0.01 0.01 0.02 0.02 0.02 0.02 0.03 0.03 0.03 0.04 0.04 0.05 0.06 0.07 0.07 0.07 0.07 0.08 0.08 0.08 0.09 0.09 0.10 0.10 0.11 0.12 0.12 0.13 0.13
0.01 0.01 0.01 0.00 0.00 0.00 0.00 0.00 0.01 0.01 0.01 0.01 0.01 0.01 0.01 0.02 0.02 0.02 0.02 0.02 0.02 0.03 0.03 0.03 0.04 0.04 0.05 0.05 0.06 0.06 0.06 0.07 0.07 0.07 0.08 0.08 0.09 0.09 0.09 0.10 0.10 0.10 0.10
0.01 0.01 0.01 0.01 0.01 0.01 0.01 0.01 0.01 0.01 0.01 0.01 0.01 0.01 0.01 0.02 0.02 0.02 0.02 0.02 0.03 0.03 0.03 0.03 0.03 0.04 0.04 0.05 0.05 0.05 0.06 0.06 0.07 0.07 0.07 0.08 0.08 0.08 0.08 0.09 0.09 0.09 0.09
0.00 0.00 0.01 0.01 0.01 0.01 0.01 0.01 0.01 0.01 0.01 0.01 0.01 0.01 0.02 0.02 0.02 0.03 0.03 0.03 0.03 0.03 0.03 0.03 0.03 0.04 0.04 0.04 0.04 0.04 0.05 0.05 0.06 0.07 0.07 0.07 0.08 0.08 0.08 0.08 0.09 0.08 0.08
MSLP
1010.51 1009.33 1008.17 1007.05 1005.99 1005.00 1004.12 1003.38 1002.81 1002.42 1002.23 1002.23 1002.42 1002.76 1003.22 1003.77 1004.37 1004.98 1005.58 1006.15 1006.69 1007.20 1007.68 1008.13 1008.58 1009.03 1009.48 1009.94 1010.41 1010.90 1011.40 1011.92 1012.44 1012.95 1013.47 1013.97 1014.44 1014.89 1015.29 1015.66 1015.99 1016.28 1016.55
1010.89 1009.74 1008.60 1007.48 1006.39 1005.36 1004.41 1003.57 1002.86 1002.32 1001.96 1001.80 1001.83 1002.04 1002.39 1002.86 1003.42 1004.01 1004.61 1005.20 1005.76 1006.27 1006.76 1007.21 1007.65 1008.08 1008.53 1009.00 1009.49 1010.02 1010.58 1011.16 1011.75 1012.36 1012.95 1013.52 1014.06 1014.56 1015.01 1015.42 1015.77 1016.08 1016.37
1011.41 1010.32 1009.23 1008.14 1007.08 1006.04 1005.06 1004.14 1003.34 1002.67 1002.16 1001.83 1001.70 1001.74 1001.95 1002.29 1002.74 1003.25 1003.79 1004.34 1004.86 1005.35 1005.81 1006.24 1006.66 1007.08 1007.52 1008.00 1008.52 1009.08 1009.68 1010.32 1010.98 1011.65 1012.32 1012.96 1013.56 1014.11 1014.61 1015.06 1015.45 1015.80 1016.12
1012.04 1011.04 1010.02 1009.01 1007.99 1006.99 1006.01 1005.08 1004.23 1003.47 1002.85 1002.38 1002.09 1001.97 1002.02 1002.20 1002.50 1002.88 1003.31 1003.75 1004.19 1004.60 1005.00 1005.38 1005.77 1006.16 1006.58 1007.05 1007.57 1008.15 1008.77 1009.44 1010.13 1010.84 1011.54 1012.22 1012.86 1013.45 1014.00 1014.49 1014.93 1015.33 1015.68
1012.75 1011.84 1010.92 1009.99 1009.06 1008.12 1007.20 1006.30 1005.44 1004.66 1003.98 1003.43 1003.02 1002.77 1002.66 1002.68 1002.81 1003.03 1003.30 1003.60 1003.90 1004.21 1004.51 1004.81 1005.12 1005.46 1005.84 1006.28 1006.77 1007.32 1007.93 1008.58 1009.25 1009.95 1010.64 1011.31 1011.95 1012.56 1013.13 1013.66 1014.14 1014.58 1015.00
1013.48 1012.67 1011.85 1011.03 1010.19 1009.35 1008.50 1007.68 1006.88 1006.13 1005.45 1004.87 1004.41 1004.06 1003.83 1003.72 1003.69 1003.74 1003.84 1003.97 1004.12 1004.28 1004.45 1004.65 1004.86 1005.12 1005.43 1005.80 1006.22 1006.71 1007.24 1007.82 1008.43 1009.05 1009.67 1010.29 1010.89 1011.48 1012.04 1012.57 1013.09 1013.57 1014.04
1014.19 1013.48 1012.76 1012.02 1011.29 1010.55 1009.82 1009.09 1008.39 1007.73 1007.12 1006.57 1006.11 1005.72 1005.43 1005.21 1005.05 1004.95 1004.89 1004.85 1004.84 1004.85 1004.88 1004.94 1005.05 1005.20 1005.41 1005.68 1006.01 1006.39 1006.81 1007.27 1007.75 1008.25 1008.76 1009.27 1009.78 1010.30 1010.81 1011.33 1011.84 1012.35 1012.86
1014.84 1014.21 1013.57 1012.93 1012.29 1011.66 1011.04 1010.44 1009.86 1009.31 1008.80 1008.34 1007.93 1007.57 1007.25 1006.97 1006.73 1006.51 1006.31 1006.13 1005.97 1005.83 1005.73 1005.66 1005.65 1005.69 1005.79 1005.95 1006.15 1006.40 1006.68 1006.99 1007.31 1007.65 1008.00 1008.36 1008.75 1009.16 1009.59 1010.05 1010.53 1011.03 1011.55
1015.40 1014.84 1014.27 1013.70 1013.15 1012.61 1012.10 1011.62 1011.17 1010.76 1010.37 1010.02 1009.69 1009.39 1009.09 1008.80 1008.50 1008.20 1007.90 1007.60 1007.32 1007.06 1006.84 1006.66 1006.54 1006.47 1006.47 1006.51 1006.60 1006.71 1006.84 1006.98 1007.14 1007.30 1007.47 1007.67 1007.91 1008.18 1008.50 1008.87 1009.29 1009.75 1010.24
1015.85 1015.35 1014.85 1014.35 1013.87 1013.41 1013.00 1012.62 1012.29 1011.99 1011.73 1011.49 1011.25 1011.01 1010.75 1010.47 1010.15 1009.81 1009.44 1009.06 1008.68 1008.33 1008.02 1007.75 1007.54 1007.39 1007.30 1007.24 1007.22 1007.21 1007.21 1007.20 1007.19 1007.19 1007.19 1007.23 1007.31 1007.44 1007.63 1007.89 1008.21 1008.59 1009.02
1016.20 1015.77 1015.32 1014.88 1014.46 1014.08 1013.73 1013.44 1013.20 1013.00 1012.83 1012.68 1012.52 1012.34 1012.12 1011.85 1011.53 1011.16 1010.75 1010.32 1009.89 1009.47 1009.10 1008.77 1008.50 1008.29 1008.13 1008.00 1007.89 1007.78 1007.67 1007.54 1007.40 1007.25 1007.12 1007.01 1006.95 1006.95 1007.01 1007.15 1007.36 1007.64 1007.97
1016.48 1016.11 1015.73 1015.34 1014.97 1014.64 1014.36 1014.12 1013.94 1013.80 1013.69 1013.59 1013.48 1013.34 1013.15 1012.89 1012.57 1012.18 1011.75 1011.28 1010.82 1010.37 1009.96 1009.60 1009.30 1009.05 1008.84 1008.66 1008.49 1008.31 1008.12 1007.89 1007.65 1007.40 1007.16 1006.94 1006.76 1006.64 1006.59 1006.62 1006.72 1006.88 1007.10
1016.71 1016.41 1016.09 1015.76 1015.44 1015.16 1014.91 1014.71 1014.56 1014.45 1014.36 1014.28 1014.19 1014.05 1013.86 1013.60 1013.26 1012.87 1012.42 1011.94 1011.46 1011.00 1010.58 1010.20 1009.88 1009.60 1009.37 1009.15 1008.94 1008.70 1008.45 1008.16 1007.85 1007.52 1007.20 1006.90 1006.64 1006.43 1006.29 1006.22 1006.22 1006.28 1006.39
1016.90 1016.67 1016.42 1016.15 1015.89 1015.65 1015.43 1015.25 1015.11 1015.00 1014.91 1014.81 1014.70 1014.55 1014.33 1014.05 1013.71 1013.30 1012.85 1012.37 1011.89 1011.42 1011.00 1010.61 1010.28 1009.99 1009.72 1009.47 1009.21 1008.93 1008.62 1008.27 1007.90 1007.52 1007.14 1006.79 1006.47 1006.21 1006.01 1005.87 1005.79 1005.77 1005.79
1017.04 1016.89 1016.71 1016.52 1016.31 1016.11 1015.93 1015.76 1015.62 1015.49 1015.38 1015.25 1015.10 1014.91 1014.67 1014.36 1014.00 1013.59 1013.13 1012.66 1012.19 1011.74 1011.31 1010.93 1010.58 1010.26 1009.96 1009.66 1009.34 1009.00 1008.62 1008.22 1007.79 1007.35 1006.93 1006.54 1006.19 1005.89 1005.66 1005.48 1005.36 1005.29 1005.26
1017.13 1017.06 1016.95 1016.83 1016.68 1016.53 1016.38 1016.23 1016.08 1015.94 1015.79 1015.63 1015.44 1015.21 1014.94 1014.61 1014.24 1013.83 1013.39 1012.94 1012.49 1012.05 1011.64 1011.25 1010.89 1010.53 1010.17 1009.80 1009.40 1008.97 1008.50 1008.01 1007.51 1007.01 1006.54 1006.11 1005.74 1005.43 1005.19 1005.01 1004.88 1004.80 1004.77
1017.13 1017.13 1017.10 1017.05 1016.97 1016.86 1016.74 1016.61 1016.47 1016.31 1016.14 1015.95 1015.73 1015.47 1015.18 1014.85 1014.48 1014.09 1013.68 1013.26 1012.85 1012.44 1012.04 1011.65 1011.25 1010.84 1010.41 1009.95 1009.44 1008.90 1008.32 1007.72 1007.12 1006.54 1006.01 1005.53 1005.14 1004.83 1004.60 1004.44 1004.35 1004.30 1004.30
1017.03 1017.09 1017.13 1017.14 1017.11 1017.06 1016.98 1016.87 1016.74 1016.58 1016.39 1016.18 1015.94 1015.68 1015.38 1015.06 1014.72 1014.37 1014.01 1013.64 1013.27 1012.90 1012.52 1012.12 1011.69 1011.23 1010.71 1010.14 1009.51 1008.82 1008.11 1007.38 1006.66 1005.98 1005.37 1004.85 1004.43 1004.12 1003.92 1003.80 1003.76 1003.78 1003.85
1016.80 1016.92 1017.01 1017.07 1017.10 1017.09 1017.05 1016.96 1016.84 1016.69 1016.50 1016.29 1016.05 1015.78 1015.51 1015.22 1014.92 1014.63 1014.33 1014.02 1013.71 1013.38 1013.03 1012.63 1012.17 1011.64 1011.04 1010.35 1009.58 1008.75 1007.89 1007.02 1006.17 1005.39 1004.69 1004.12 1003.67 1003.36 1003.18 1003.12 1003.15 1003.26 1003.42
1016.46 1016.61 1016.74 1016.85 1016.92 1016.94 1016.92 1016.86 1016.76 1016.61 1016.43 1016.22 1015.99 1015.75 1015.51 1015.26 1015.03 1014.79 1014.56 1014.33 1014.08 1013.80 1013.47 1013.08 1012.59 1012.01 1011.32 1010.52 1009.63 1008.66 1007.66 1006.65 1005.68 1004.78 1004.01 1003.37 1002.90 1002.59 1002.44 1002.43 1002.54 1002.74 1003.00
1016.00 1016.18 1016.34 1016.47 1016.56 1016.61 1016.61 1016.56 1016.47 1016.33 1016.16 1015.97 1015.77 1015.56 1015.35 1015.16 1014.98 1014.82 1014.66 1014.50 1014.31 1014.08 1013.77 1013.38 1012.88 1012.24 1011.48 1010.59 1009.59 1008.51 1007.38 1006.25 1005.18 1004.19 1003.34 1002.66 1002.16 1001.85 1001.72 1001.76 1001.94 1002.22 1002.57
1015.45 1015.64 1015.82 1015.96 1016.06 1016.12 1016.13 1016.09 1016.00 1015.88 1015.72 1015.55 1015.36 1015.19 1015.03 1014.89 1014.78 1014.68 1014.58 1014.48 1014.35 1014.15 1013.87 1013.48 1012.96 1012.29 1011.48 1010.52 1009.43 1008.26 1007.05 1005.84 1004.68 1003.62 1002.72 1002.00 1001.48 1001.17 1001.06 1001.13 1001.36 1001.70 1002.14
1014.84 1015.03 1015.20 1015.34 1015.44 1015.50 1015.51 1015.47 1015.39 1015.27 1015.13 1014.98 1014.83 1014.70 1014.58 1014.50 1014.44 1014.39 1014.35 1014.30 1014.20 1014.03 1013.77 1013.38 1012.84 1012.15 1011.29 1010.28 1009.15 1007.93 1006.67 1005.41 1004.20 1003.11 1002.18 1001.43 1000.90 1000.59 1000.48 1000.58 1000.83 1001.22 1001.70
1014.19 1014.37 1014.53 1014.65 1014.74 1014.78 1014.79 1014.75 1014.67 1014.57 1014.45 1014.33 1014.22 1014.13 1014.07 1014.03 1014.02 1014.02 1014.03 1014.00 1013.93 1013.77 1013.51 1013.11 1012.56 1011.85 1010.97 1009.95 1008.80 1007.56 1006.28 1005.01 1003.80 1002.70 1001.76 1001.01 1000.47 1000.15 1000.05 1000.14 1000.40 1000.80 1001.30
1013.52 1013.68 1013.81 1013.92 1013.98 1014.01 1014.01 1013.97 1013.91 1013.83 1013.74 1013.66 1013.60 1013.56 1013.55 1013.57 1013.60 1013.64 1013.68 1013.67 1013.60 1013.45 1013.18 1012.77 1012.21 1011.48 1010.60 1009.57 1008.43 1007.21 1005.95 1004.70 1003.51 1002.44 1001.51 1000.77 1000.24 999.92 999.81 999.89 1000.13 1000.52 1001.01
1012.84 1012.98 1013.08 1013.16 1013.21 1013.22 1013.21 1013.18 1013.13 1013.08 1013.04 1013.01 1013.01 1013.03 1013.08 1013.15 1013.23 1013.31 1013.36 1013.37 1013.30 1013.14 1012.85 1012.43 1011.86 1011.13 1010.26 1009.25 1008.14 1006.96 1005.75 1004.56 1003.42 1002.39 1001.51 1000.79 1000.27 999.95 999.82 999.88 1000.09 1000.45 1000.91
Thickness
5533 5536 5539 5542 5545 5548 5550 5554 5557 5560 5563 5566 5569 5571 5573 5575 5575 5575 5576 5577 5577 5578 5578 5578 5579 5579 5578 5578 5576 5575 5575 5574 5576 5581 5581 5581 5581 5580 5579 5578 5578 5577 5577
5527 5530 5532 5535 5538 5541 5543 5546 5549 5552 5555 5557 5559 5562 5564 5565 5566 5566 5566 5566 5567 5567 5568 5568 5568 5568 5567 5566 5565 5566 5566 5566 5566 5568 5569 5569 5570 5571 5571 5570 5569 5569 5569
5522 5524 5526 5529 5531 5533 5535 5538 5541 5544 5547 5549 5550 5552 5554 5555 5556 5555 5556 5556 5556 5556 5556 5556 5557 5555 5555 5555 5554 5555 5555 5555 5555 5556 5558 5558 5559 5559 5559 5559 5559 5558 5558
5517 5519 5520 5521 5523 5525 5528 5530 5533 5536 5539 5540 5542 5543 5544 5545 5545 5545 5546 5546 5545 5545 5545 5545 5545 5545 5544 5544 5543 5544 5543 5543 5544 5545 5546 5546 5547 5547 5547 5548 5547 5547 5547
5512 5513 5513 5514 5516 5518 5520 5522 5524 5527 5529 5530 5532 5533 5534 5535 5536 5536 5536 5536 5535 5534 5534 5534 5534 5534 5534 5533 5533 5533 5532 5532 5533 5535 5536 5536 5536 5536 5539 5539 5537 5537 5536
5507 5507 5507 5507 5509 5511 5513 5515 5516 5517 5519 5520 5522 5523 5524 5525 5526 5526 5525 5525 5525 5524 5523 5523 5523 5522 5521 5521 5522 5522 5522 5522 5524 5525 5527 5528 5531 5531 5532 5529 5526 5524 5526
5501 5501 5501 5501 5502 5504 5507 5508 5509 5509 5510 5511 5512 5514 5515 5516 5516 5515 5515 5515 5514 5513 5512 5511 5510 5510 5509 5510 5511 5511 5512 5514 5516 5517 5517 5520 5522 5523 5522 5520 5519 5520 5522
5496 5495 5496 5496 5496 5497 5499 5500 5500 5501 5502 5502 5503 5504 5505 5505 5505 5504 5503 5502 5501 5500 5499 5498 5498 5498 5498 5499 5500 5500 5502 5504 5506 5507 5509 5512 5512 5512 5513 5515 5514 5510 5509
5490 5490 5490 5489 5489 5490 5490 5491 5491 5492 5494 5494 5495 5495 5495 5494 5494 5493 5492 5490 5489 5487 5487 5486 5485 5486 5487 5487 5488 5489 5492 5495 5496 5496 5499 5500 5501 5502 5501 5500 5500 5498 5498
5484 5483 5483 5482 5482 5481 5481 5482 5482 5483 5484 5485 5486 5485 5485 5484 5483 5482 5480 5479 5477 5476 5476 5475 5474 5475 5476 5475 5475 5477 5479 5483 5484 5486 5488 5490 5491 5491 5491 5491 5493 5491 5489
5479 5478 5477 5476 5475 5475 5475 5474 5474 5474 5475 5476 5476 5475 5474 5473 5472 5471 5469 5466 5465 5464 5464 5464 5464 5464 5465 5464 5464 5465 5468 5470 5472 5474 5477 5478 5479 5479 5480 5481 5483 5483 5481
5473 5472 5470 5469 5469 5468 5467 5467 5467 5466 5466 5465 5465 5465 5463 5462 5461 5460 5458 5456 5454 5453 5454 5454 5454 5454 5455 5454 5454 5455 5456 5457 5459 5461 5463 5464 5467 5469 5469 5469 5470 5471 5472
5466 5464 5463 5462 5461 5460 5459 5458 5458 5456 5455 5454 5453 5452 5452 5451 5449 5448 5447 5445 5444 5443 5443 5444 5444 5444 5444 5444 5444 5444 5444 5444 5446 5447 5449 5451 5453 5455 5455 5455 5456 5456 5457
5458 5456 5455 5453 5452 5450 5449 5448 5447 5445 5444 5442 5440 5439 5439 5439 5438 5437 5436 5434 5434 5434 5433 5433 5433 5433 5432 5433 5432 5432 5431 5432 5434 5435 5436 5437 5438 5440 5442 5443 5443 5443 5442
5449 5447 5446 5444 5442 5441 5440 5438 5437 5435 5433 5431 5429 5428 5428 5428 5427 5425 5424 5424 5423 5423 5422 5421 5421 5420 5420 5420 5420 5420 5420 5420 5421 5422 5424 5425 5425 5427 5428 5429 5431 5431 5431
5440 5438 5436 5434 5432 5431 5429 5428 5427 5426 5425 5423 5421 5419 5418 5417 5417 5416 5414 5413 5412 5412 5410 5408 5407 5406 5406 5406 5406 5407 5407 5408 5409 5410 5411 5412 5413 5415 5416 5417 5418 5420 5421
5431 5428 5426 5424 5422 5420 5419 5417 5416 5416 5414 5413 5411 5410 5409 5407 5406 5405 5403 5402 5401 5399 5396 5394 5393 5391 5391 5391 5391 5392 5393 5394 5394 5396 5398 5399 5400 5402 5403 5405 5406 5408 5409
5422 5420 5417 5414 5412 5410 5408 5406 5404 5403 5402 5401 5400 5399 5398 5396 5395 5393 5392 5390 5388 5386 5382 5380 5378 5377 5376 5377 5377 5378 5379 5381 5382 5383 5385 5387 5388 5389 5391 5393 5394 5396 5397
5414 5410 5407 5405 5402 5400 5398 5396 5393 5392 5390 5388 5387 5387 5386 5384 5382 5380 5378 5375 5373 5371 5369 5367 5365 5364 5363 5363 5364 5365 5366 5367 5369 5370 5373 5374 5376 5378 5380 5381 5383 5385 5386
5405 5403 5399 5396 5393 5391 5388 5386 5383 5380 5378 5376 5375 5373 5372 5370 5368 5366 5364 5360 5358 5357 5355 5354 5353 5352 5351 5350 5351 5352 5353 5355 5356 5358 5359 5361 5363 5365 5368 5370 5371 5373 5374
5397 5394 5391 5387 5383 5381 5378 5375 5373 5370 5367 5365 5363 5361 5360 5357 5354 5352 5350 5348 5346 5344 5343 5342 5342 5341 5340 5340 5339 5340 5341 5343 5344 5346 5348 5350 5352 5354 5357 5358 5360 5361 5362
5388 5385 5381 5378 5374 5371 5368 5365 5362 5359 5357 5354 5352 5350 5349 5345 5342 5340 5338 5336 5335 5333 5333 5332 5332 5331 5330 5329 5329 5330 5330 5332 5333 5335 5338 5340 5342 5344 5346 5348 5350 5351 5352
5380 5376 5372 5368 5365 5362 5359 5355 5352 5349 5346 5343 5341 5339 5337 5334 5331 5329 5327 5325 5324 5323 5323 5323 5322 5321 5320 5320 5320 5321 5321 5323 5325 5327 5329 5331 5333 5335 5336 5338 5340 5341 5342
5371 5367 5363 5359 5355 5351 5348 5344 5341 5338 5335 5332 5329 5327 5325 5323 5320 5318 5316 5314 5313 5313 5312 5312 5312 5311 5311 5310 5311 5312 5314 5316 5317 5319 5321 5323 5324 5326 5328 5330 5331 5332 5333
5361 5357 5353 5348 5345 5341 5337 5333 5329 5326 5323 5321 5318 5316 5313 5311 5309 5307 5305 5303 5302 5302 5302 5302 5302 5302 5302 5302 5303 5304 5307 5309 5311 5313 5314 5316 5317 5319 5320 5321 5323 5323 5324
5351 5347 5342 5338 5334 5330 5326 5322 5319 5315 5312 5310 5307 5305 5302 5300 5298 5296 5295 5293 5292 5292 5292 5293 5293 5293 5293 5294 5295 5297 5300 5303 5305 5307 5308 5309 5310 5311 5313 5314 5314 5315 5315